Home > Weather > Maastricht > Past weeks

Flag for Netherlands Weather for the Past 2 Weeks in Maastricht, Netherlands

Now
55 °F

Clear.


Feels Like: 54 °F
Forecast: 40 / 56 °F
Wind: 7 mph from Southwest

Location: Maastricht Airport Zuid Limburg

Current Time: May 2, 2016 at 11:56:28 PM

Latest Report: May 2, 2016 at 10:55 PM


Visibility: N/A

Pressure: 30.12 "Hg

Humidity: 51%

Dew Point: 37 °F

Location of MaastrichtLocation

Historic Weather in Maastricht — Graph

°F

Maastricht Temperature Yesterday

Maximum temperature yesterday: 55 °F (at 3:55 PM)
Minimum temperature yesterday: 41 °F (at 1:25 AM)
Average temperature yesterday: 47 °F

High & Low Weather Summary for the Past Weeks

 TemperatureHumidityPressure
High66 °F (Apr 21, 3:25 PM)100% (Apr 18, 3:55 AM)30.45 "Hg (Apr 18, 3:55 AM)
Low32 °F (Apr 18, 6:25 AM)32% (Apr 21, 3:25 PM)29.56 "Hg (Apr 26, 7:25 AM)
Average45 °F75%30.05 "Hg
* Reported Apr 17 10:25 PM — May 2 10:25 PM, Maastricht, Weather by CustomWeather, © 2016

Note: Actual official high and low records may vary slightly from our data, if they occured in-between our weather recording intervals... More about our weather records

Advertising

Maastricht Weather History for the Previous 24 Hours

Scroll right to see more
 ConditionsComfort  
Time TempWeatherWind HumidityBarometerVisibility
10:25 PM
Mon, May 2
55 °FClear.7 mph51%30.12 "HgN/A
9:55 PM55 °FClear.6 mph47%30.12 "HgN/A
9:25 PM57 °FClear.6 mph48%30.12 "HgN/A
8:55 PM59 °FRefreshingly cool.5 mph48%30.12 "HgN/A
8:25 PM59 °FClear.6 mph48%30.12 "HgN/A
7:55 PM61 °FRefreshingly cool.5 mph45%30.12 "HgN/A
7:25 PM61 °FClear.9 mph48%30.12 "HgN/A
6:55 PM61 °FRefreshingly cool.7 mph52%30.12 "HgN/A
6:25 PM63 °FClear.9 mph52%30.12 "HgN/A
5:55 PM63 °FClear.9 mph56%30.12 "HgN/A
5:25 PM63 °FClear.10 mph56%30.12 "HgN/A
4:55 PM64 °FMild.8 mph52%30.15 "HgN/A
4:25 PM64 °FClear.7 mph56%30.15 "HgN/A
3:55 PM63 °FClear.7 mph52%30.18 "HgN/A
3:25 PM64 °FClear.8 mph52%30.18 "HgN/A
2:55 PM64 °FMild.7 mph52%30.18 "HgN/A
2:25 PM63 °FClear.9 mph49%30.18 "HgN/A
1:55 PM61 °FClear.9 mph55%30.21 "HgN/A
1:25 PM61 °FRefreshingly cool.7 mph59%30.21 "HgN/A
12:55 PM61 °FClear.6 mph59%30.21 "HgN/A
12:25 PM57 °FClear.3 mph59%30.24 "HgN/A
11:55 AM57 °FRefreshingly cool.3 mph59%30.24 "HgN/A
11:25 AM55 °FCool.3 mph63%30.24 "HgN/A
10:55 AM54 °FClear.3 mph67%30.27 "HgN/A
10:25 AM52 °FClear.2 mph72%30.27 "HgN/A
9:55 AM50 °FClear.3 mph71%30.27 "HgN/A
9:25 AM48 °FCool.5 mph76%30.27 "HgN/A
8:55 AM45 °FClear.6 mph87%30.27 "HgN/A
8:25 AM43 °FClear.7 mph87%30.27 "HgN/A
6:55 AM37 °FChilly.6 mph93%30.30 "HgN/A
6:25 AM36 °FClear.5 mph100%30.30 "Hg6 mi
5:55 AM37 °FChilly.6 mph93%30.30 "Hg6 mi
5:25 AM37 °FClear.5 mph93%30.30 "HgN/A
4:55 AM39 °FClear.5 mph93%30.30 "HgN/A
4:25 AM39 °FClear.3 mph93%30.30 "HgN/A
3:55 AM41 °FClear.3 mph93%30.30 "HgN/A
2:55 AM41 °FClear.3 mph87%30.30 "HgN/A
2:25 AM41 °FClear.2 mph87%30.30 "HgN/A
1:55 AM43 °FClear.2 mph81%30.30 "HgN/A
12:55 AM43 °FClear.2 mph81%30.33 "HgN/A
12:25 AM45 °FClear.3 mph76%30.33 "HgN/A
11:55 PM
Sun, May 1
46 °FClear.2 mph71%30.33 "HgN/A
Weather by CustomWeather, © 2016

See weather overviewHow to use our weather pages